This demonstration page uses our WeatherBlox Daily Observations layout. Learn more.

Left ArrowRight Arrow

Hourly Observations for October 10, 2022

Temp ( °F °C ) Dew Point ( °F °C ) Humidity (%) Winds ( mph kmh ) Pressure ( in mb ) Visibility ( mi km ) Precip ( " mm )
12:51 am 00:51 Clear 57 13.9 52 11.1 83 83 E 6 9 30.02 1017 10 16 0.00 0.00
1:51 am 01:51 Clear 56 13.3 52 11.1 87 87 SE 5 7 30.01 1016 10 16 0.00 0.00
2:51 am 02:51 Clear 58 14.4 53 11.7 84 84 ESE 8 13 30.00 1016 10 16 0.00 0.00
3:51 am 03:51 Clear 57 13.9 53 11.7 87 87 E 6 9 29.99 1016 10 16 0.00 0.00
4:51 am 04:51 Clear 57 13.9 53 11.7 87 87 ESE 9 15 30.01 1016 10 16 0.00 0.00
5:51 am 05:51 Clear 56 13.3 53 11.7 90 90 SE 8 13 30.02 1017 10 16 0.00 0.00
6:51 am 06:51 Sunny 58 14.4 52 11.1 81 81 SE 12 19 30.03 1017 10 16 0.00 0.00
7:51 am 07:51 Mostly Cloudy 62 16.7 53 11.7 72 72 ESE 10 17 30.05 1018 10 16 0.00 0.00
8:51 am 08:51 Sunny 65 18.3 53 11.7 65 65 SSE 9 15 30.05 1018 10 16 0.00 0.00
9:51 am 09:51 Sunny 68 20 54 12.2 61 61 VRB 5 7 30.04 1017 10 16 0.00 0.00
10:51 am 10:51 Sunny 71 21.7 52 11.1 51 51 SE 8 13 30.01 1016 10 16 0.00 0.00
11:51 am 11:51 Sunny 74 23.3 52 11.1 46 46 SSE 8 13 29.98 1015 10 16 0.00 0.00
12:51 pm 12:51 Sunny 75 23.9 52 11.1 45 45 ESE 6 9 29.94 1014 10 16 0.00 0.00
1:51 pm 13:51 Sunny 77 25 52 11.1 42 42 SSE 10 17 29.90 1013 10 16 0.00 0.00
2:51 pm 14:51 Sunny 77 25 52 11.1 42 42 VRB 3 6 29.87 1012 10 16 0.00 0.00
3:51 pm 15:51 Mostly Sunny 79 26.1 50 10 36 36 undefined N/A 29.86 1011 10 16 0.00 0.00
4:51 pm 16:51 Sunny 75 23.9 51 10.6 43 43 W 8 13 29.87 1011 10 16 0.00 0.00
5:51 pm 17:51 Mostly Cloudy 74 23.3 51 10.6 45 45 W 3 6 29.88 1012 10 16 0.00 0.00
6:02 pm 18:02 Cloudy with Nearby Thunderstorms 74 23.3 52 11.1 46 46 W 5 7 29.82 1010 10 16 0.00 0.00
6:35 pm 18:35 Cloudy 73 22.8 50 10 44 44 NE 12 19 29.84 1010 10 16 0.00 0.00
6:51 pm 18:51 Cloudy with Rain 68 20 54 12.2 61 61 NE 14 22 29.91 1013 9 14 0.01 0.13
7:18 pm 19:18 Cloudy with Thunderstorms 65 18.3 56 13.3 73 73 E 12 19 29.93 1013 10 16 0.04 1.02
7:33 pm 19:33 Cloudy with Nearby Thunderstorms 66 18.9 56 13.3 70 70 E 10 17 29.92 1013 10 16 0.04 1.02
7:51 pm 19:51 Mostly Cloudy 66 18.9 57 13.9 73 73 E 10 17 29.93 1014 10 16 0.04 1.02
8:51 pm 20:51 Mostly Clear 66 18.9 54 12.2 65 65 E 8 13 29.93 1014 10 16 0.00 0.00
9:51 pm 21:51 Mostly Clear 63 17.2 57 13.9 81 81 S 5 7 29.94 1014 10 16 0.00 0.00
10:51 pm 22:51 Clear 61 16.1 56 13.3 83 83 S 3 6 29.93 1014 10 16 0.00 0.00
11:51 pm 23:51 Clear 58 14.4 56 13.3 93 93 NNE 5 7 29.92 1013 10 16 0.00 0.00

Powered by AerisWeather